Regional Weather Roundup
Issued by NWS

Home | Current Version | Previous Version | Text Only | Print | Product List | Glossary On
Versions: 1 2 3 4 5 6 7 8 9 10 11 12 13 14 15 16 17 18 19 20 21 22 23 24 25 26 27 28 29 30 31 32 33 34 35 36 37 38 39 40 41 42 43 44 45 46 47 48 49 50
551
ASUS43 KMKX 221200
RWRWI

WISCONSIN REGIONAL WEATHER ROUNDUP
NATIONAL WEATHER SERVICE MILWAUKEE/SULLIVAN WI
600 AM CST WED FEB 22 2017

NOTE: "FAIR" INDICATES FEW OR NO CLOUDS BELOW 12,000 FEET WITH NO
SIGNIFICANT WEATHER AND/OR OBSTRUCTIONS TO VISIBILITY.

WIZ001-002-006>008-014>016-023>028-221300-
NORTHWEST WISCONSIN

CITY           SKY/WX    TMP DP  RH WIND       PRES   REMARKS
SUPERIOR ARPT  CLOUDY    32  32 100 CALM      29.65S FOG
ASHLAND        CLOUDY    38  37  97 CALM      29.64R
6HR MIN TEMP:  33; 6HR MAX TEMP:  46;

HAYWARD        CLOUDY    32  30  92 CALM      29.63S
6HR MIN TEMP:  32; 6HR MAX TEMP:  49;

SIREN          FOG       33  33  99 CALM      29.61F VSB 3/4
CUMBERLAND     CLOUDY    34  34 100 CALM      29.63R FOG
RICE LAKE      CLOUDY    36  35  99 CALM      29.64F FOG
CHETEK         CLOUDY    34  34 100 CALM      29.63F
LADYSMITH      CLOUDY    35  35  96 S3        29.66R
EAU CLAIRE     NOT AVBL
MENOMONIE      CLOUDY    37  35  91 E7        29.60F WCI  32
6HR MIN TEMP:  35; 6HR MAX TEMP:  47;

NEW RICHMOND   PTCLDY    38  38 100 SE5       29.60F WCI  34
OSCEOLA        PTCLDY    37  37 100 NE5       29.63R FOG     WCI  34
$$

WIZ003>005-009-010-017-018-221300-
NORTH CENTRAL WISCONSIN

CITY           SKY/WX    TMP DP  RH WIND       PRES   REMARKS
MANITOWISH WTR MOCLDY    32  32 100 CALM      29.62F
ARBOR VITAE    PTCLDY    37  35  93 CALM        N/A
WOODRUFF       PTCLDY    37  35  93 CALM        N/A
RHINELANDER    PTCLDY    35  32  88 CALM      29.64F
6HR MIN TEMP:  35; 6HR MAX TEMP:  48;

EAGLE RIVER    MOCLDY    34  32  93 CALM      29.63F
LAND O LAKES   PTCLDY    32  31  95 CALM      29.64F
6HR MIN TEMP:  32; 6HR MAX TEMP:  46;

PHILLIPS       CLOUDY    30  30  99 CALM      29.63S
6HR MIN TEMP:  30; 6HR MAX TEMP:  44;

TOMAHAWK       PTCLDY    32  30  92 CALM      29.64F
MEDFORD        CLOUDY    36  34  90 S6        29.65R WCI  32
MERRILL        NOT AVBL
$$

WIZ029-030-035-036-043>047-221300-
CENTRAL WISCONSIN

CITY           SKY/WX    TMP DP  RH WIND       PRES   REMARKS
WAUSAU         CLOUDY    38  34  85 SW9       29.65S WCI  31
6HR MIN TEMP:  37; 6HR MAX TEMP:  46;

MOSINEE        CLEAR     37  36  93 S7        29.67F WCI  32
MARSHFIELD     PTCLDY    41  34  76 SW10      29.69R
6HR MIN TEMP:  37; 6HR MAX TEMP:  45;

STEVENS POINT  CLEAR     32  32 100 SW3       29.68F
WAUPACA        CLEAR     38  35  90 CALM      29.69S
WAUTOMA        CLEAR     30  28  92 CALM      29.70S
6HR MIN TEMP:  29; 6HR MAX TEMP:  49;

WISC RAPIDS    PTCLDY    38  36  92 SW8       29.69R WCI  32
6HR MIN TEMP:  35; 6HR MAX TEMP:  48;

CAMP DOUGLAS   NOT AVBL
$$

WIZ011>013-019>022-031-037>040-048>050-221300-
NORTHEAST WISCONSIN

CITY           SKY/WX    TMP DP  RH WIND       PRES   REMARKS
ANTIGO         CLOUDY    37  34  87 CALM      29.66F
SHAWANO        CLEAR     37  33  85 CALM      29.68F
6HR MIN TEMP:  37; 6HR MAX TEMP:  50;

OCONTO         PTCLDY    32  31  97 CALM      29.68F
STURGEON BAY   PTCLDY    36  35  96 E3        29.70F FOG
6HR MIN TEMP:  36; 6HR MAX TEMP:  48;

GREEN BAY      CLEAR     38  37  97 W3        29.69F
6HR MIN TEMP:  37; 6HR MAX TEMP:  49;

MANITOWOC      CLEAR     36  34  93 CALM      29.72S FOG
APPLETON       CLEAR     37  36  93 S6        29.67F WCI  33
CLINTONVILLE   CLEAR     34  32  93 CALM      29.68F
OSHKOSH        CLEAR     44  41  89 S12       29.69F
6HR MIN TEMP:  44; 6HR MAX TEMP:  51;

$$

WIZ032>034-041-042-053>061-221300-
SOUTHWEST WISCONSIN

CITY           SKY/WX    TMP DP  RH WIND       PRES   REMARKS
LA CROSSE      MOCLDY    43  36  76 S8        29.67S
6HR MIN TEMP:  43; 6HR MAX TEMP:  51;

SPARTA         PTCLDY    40  35  81 CALM      29.69S
6HR MIN TEMP:  34; 6HR MAX TEMP:  51;

VIROQUA        MOCLDY    46  36  66 S9        29.68F
6HR MIN TEMP:  43; 6HR MAX TEMP:  47;

BOSCOBEL       CLEAR     32  30  92 CALM      29.71F FOG
6HR MIN TEMP:  31; 6HR MAX TEMP:  45;

PRAIRIE DU CHI CLEAR     39  34  81 CALM      29.71S
PLATTEVILLE    CLOUDY    42  42 100 S7        29.75S VSB 1/4
$$

WIZ056-057-062-063-064-067-068-221300-
SOUTH CENTRAL WISCONSIN

CITY           SKY/WX    TMP DP  RH WIND       PRES   REMARKS
REEDSBURG      CLEAR     49  45  86 CALM      29.69S
6HR MIN TEMP:  47; 6HR MAX TEMP:  51;

BARABOO/DELLS  CLEAR     51  42  71 SW12      29.69F
LONE ROCK      CLEAR     40  39  97 VRB3      29.73S FOG
MINERAL POINT  SNOW      45  45 100 S9        29.74F VSB<1/4
MADISON        PTCLDY    46  45  96 S8        29.72F FOG
6HR MIN TEMP:  38; 6HR MAX TEMP:  49;

MIDDLETON      CLEAR     50  47  89 S8        29.72F
6HR MIN TEMP:  49; 6HR MAX TEMP:  55;

WATERTOWN      FOG       49  49 100 SW10      29.75S VSB 1
MONROE         DRZL/FOG  50  50 100 SW15      29.75F VSB 1/4
JANESVILLE     FOG       52  52 100 SW3       29.76F VSB 1/2
$$

WIZ051-052-058>065-066-070>072-221300-
SOUTHEAST WISCONSIN

CITY           SKY/WX    TMP DP  RH WIND       PRES   REMARKS
MILWAUKEE      FOG       51  50  96 SW10      29.76F VSB 1/4
6HR MIN TEMP:  40; 6HR MAX TEMP:  51;

WAUKESHA       FOG       48  48 100 SW9       29.77S VSB 1
MILWAUKEE/TIMM CLOUDY    50  46  87 SW12      29.77S FOG
RACINE         FOG       51  50  96 SW9       29.79F VSB 1/2
6HR MIN TEMP:  39; 6HR MAX TEMP:  51;

KENOSHA        FOG       49  48  97 SW7       29.78F VSB 3/4
6HR MIN TEMP:  44; 6HR MAX TEMP:  50;

FOND DU LAC    CLEAR     48  43  82 S10       29.71F
6HR MIN TEMP:  46; 6HR MAX TEMP:  53;

SHEBOYGAN      CLEAR     45  42  89 SW8       29.71F
6HR MIN TEMP:  36; 6HR MAX TEMP:  46;

WEST BEND      CLEAR     48  48 100 SW6       29.73F
JUNEAU         CLEAR     43  42  98 S9        29.75S FOG
$$

LSZ147-162-221300-
LAKE SUPERIOR

STATION/POSITION TIME  TEMP    WIND        PRES    WAVE
                       AIR SEA DIR/SP/G            HT/PER
                 (UTC) (F)     (DEG/KT/KT) (MB)    (FT/S)
DEVILS ISLAND    1100   36     250/  3/  4 1004.1F
PORT WING        1140   33     130/  2/  3 1004.1R
SAXON HARBOR     1130   34     300/  1/  3 1003.7R
$$

LMZ867-665-643>646-221300-
LAKE MICHIGAN

STATION/POSITION TIME  TEMP    WIND        PRES    WAVE
                       AIR SEA DIR/SP/G            HT/PER
                 (UTC) (F)     (DEG/KT/KT) (MB)    (FT/S)
CHAMBERS ISLAND  1140   45     180/  6/ 11 1005.4R
NORTHPORT PIER   1140   38     160/  3/  6 1005.8S
SISTER BAY       1050   38     160/  3/  6   N/A
KEWAUNEE LAKESHO 1130   37     170/  5/  7 1005.6S
SHEBOYGAN LAKESH 1100   40     180/  7/  7 1006.9F
PORT WASHINGTON  1140   39     200/  2/  4 1008.1F
MILWAUKEE LAKESH 1130   50     230/ 10/ 13   N/A
KENOSHA   LAKESH 1100   44     190/  7/ 10 1009.1
$$

TC  - TEMPERATURE IN CELSIUS
VSB - VISIBILITY IN STATUTE MILES
WCI - WIND CHILL INDEX
HX  - HEAT INDEX





USA.gov is the U.S. government's official web portal to all federal, state and local government web resources and services.